[[{"header":{"parameterUnit":"m.s-1","parameterCategory":1,"la1":30.2991,"la2":30.254,"lo1":-89.0895,"lo2":-89.0444,"dy":0.0017,"dx":0.0017,"nx":28,"ny":28,"refTime":"2023-09-07T03:00:00:Z","depth":0,"parameterNumber":2,"parameterNumberName":"U-component_of_WINDS"},"data":[0,0,0,0,0,0,0,0,0,0,0,0,0,0,0,0,0,0,0,0,0,0,0,0,0,0,0,0,0,0,0,0,0,0,0,0,0,0,0,0,0,0,0,0,0,0,0,0,0,0,0,0,0,0,0,0,0,0,1.1876,1.1877,0,1.1973,1.1975,1.1976,1.1992,1.1991,1.199,1.199,1.2093,1.2096,1.21,0,0,0,0,0,0,0,0,0,0,0,0,0,1.1706,1.1709,1.1876,1.1877,1.1878,1.1973,1.1975,1.1976,1.1992,1.1991,1.199,1.1989,1.2092,1.2096,1.21,0,0,0,0,0,0,0,0,0,0,0,0,0,1.1789,1.171,1.1876,1.1898,1.1901,1.1973,1.1975,1.1976,1.1993,1.1991,1.199,1.1989,1.209,1.2095,1.2101,1.2159,0,0,1.2117,1.2119,0,0,0,0,0,0,0,0,1.1784,1.1795,1.1893,1.1896,1.19,1.1969,1.1952,1.2038,1.1993,1.1958,1.199,1.1988,1.2053,1.2061,1.2082,1.2163,1.2168,1.2117,1.2121,1.2123,1.2124,0,0,0,0,0,0,0,1.1778,1.1791,1.1915,1.1895,1.1899,1.1903,1.1914,1.1969,1.2011,1.1961,1.1962,1.1973,1.2055,1.2077,1.2085,1.2169,1.2117,1.2122,1.2125,1.2127,1.2301,1.2302,0,0,0,0,0,0,1.1768,1.1786,1.1911,1.1917,1.1838,1.1908,1.1919,1.1948,1.2011,1.2019,1.1974,1.1974,1.2069,1.2079,1.2089,1.2159,1.2123,1.2128,1.2131,1.2299,1.2301,1.2303,0,0,0,0,0,0,1.1765,1.1779,1.1908,1.1852,1.1869,1.1912,1.1944,1.1951,1.1974,1.2021,1.2029,1.1989,1.2068,1.2081,1.214,1.2163,1.213,1.2135,1.2298,1.23,1.2302,1.2301,0,0,0,0,0,0,1.176,1.1778,1.18,1.1853,1.1872,1.1957,1.1946,1.1954,1.1982,1.1982,1.2037,1.2045,1.2068,1.2132,1.2146,1.217,1.2139,1.2296,1.2299,1.2301,1.2299,1.2303,1.2306,0,0,0,0,0,1.1754,1.1797,1.1801,1.1816,1.19,1.1958,1.1969,1.1994,1.1984,1.2007,1.2037,1.2044,1.2158,1.2138,1.2153,1.2179,1.2295,1.2298,1.2301,1.2298,1.2302,1.2306,0,0,0,0,0,0,1.1747,1.1804,1.1809,1.1871,1.1909,1.1961,1.199,1.1998,1.2041,1.204,1.2069,1.2082,1.2139,1.2165,1.2142,1.2238,1.2226,1.2232,1.2218,1.2223,1.2226,1.2218,1.2144,0,0,0,0,0,1.1753,1.1795,1.1843,1.1892,1.1911,1.1947,1.1974,1.1989,1.203,1.2047,1.2082,1.2123,1.2168,1.2197,1.2241,1.2303,1.2315,1.2328,1.2332,1.2334,1.2339,1.2372,1.2378,1.2313,1.2313,1.2313,0,0,1.1765,1.1801,1.1826,1.1892,1.1923,1.1966,1.1961,1.2007,1.2039,1.2055,1.2112,1.2138,1.2186,1.2246,1.2275,1.227,1.236,1.2338,1.234,1.2344,1.2376,1.2382,1.2388,1.2316,1.2315,1.2315,0,0,1.1809,1.1841,1.1885,1.1916,1.1964,1.1987,1.1998,1.2048,1.2066,1.2123,1.2135,1.2174,1.2252,1.2284,1.2311,1.2366,1.2373,1.238,1.2397,1.2429,1.2434,1.2438,1.2456,1.2463,1.2384,1.2385,1.2385,0,1.1818,1.1883,1.1907,1.1952,1.198,1.1995,1.2039,1.2069,1.2129,1.2148,1.2142,1.2238,1.2271,1.2338,1.2351,1.2373,1.2385,1.2373,1.2431,1.2436,1.2441,1.2458,1.2465,1.2385,1.2385,1.2385,1.2385,0,1.1891,1.1935,1.1965,1.2021,1.2053,1.2097,1.2128,1.2158,1.217,1.2194,1.2252,1.2292,1.2344,1.2361,1.2375,1.243,1.2425,1.2425,1.2413,1.2447,1.2464,1.2471,1.2385,1.2385,1.2385,1.2385,0,0,1.1934,1.2001,1.2012,1.2036,1.2089,1.2124,1.2169,1.2218,1.2242,1.2283,1.2321,1.2385,1.2384,1.2414,1.2432,1.246,1.2498,1.2456,1.2457,1.2461,1.256,1.2559,1.2566,1.2504,1.2505,1.2506,1.2555,0,1.1983,1.2062,1.2085,1.2152,1.2193,1.2207,1.2246,1.2282,1.2306,1.2344,1.2371,1.2415,1.2412,1.243,1.2458,1.2487,1.2518,1.2485,1.2539,1.2541,1.2525,1.2576,1.2575,1.262,1.2562,1.2564,1.2564,0,1.205,1.209,1.2161,1.2207,1.2225,1.2259,1.2305,1.2342,1.2384,1.2399,1.2432,1.2446,1.2493,1.248,1.2545,1.2521,1.2545,1.2563,1.2565,1.257,1.2554,1.2581,1.2635,1.2641,1.2575,1.2574,1.2574,0,1.2072,1.2144,1.2195,1.2216,1.2272,1.2295,1.232,1.236,1.2388,1.2428,1.2446,1.2493,1.2518,1.2553,1.2579,1.2567,1.2642,1.2631,1.2655,1.2654,1.267,1.2668,1.2727,1.2687,1.2687,1.2687,1.2687,0,1.2124,1.2166,1.2205,1.2237,1.2284,1.231,1.2357,1.2382,1.2418,1.2454,1.247,1.2504,1.2537,1.2576,1.2597,1.2646,1.2658,1.2672,1.2676,1.2669,1.2667,1.2685,1.2682,1.2688,1.2688,1.2688,1.2687,0,1.2156,1.2184,1.224,1.2288,1.2301,1.2333,1.2374,1.2405,1.2429,1.2475,1.2487,1.2525,1.257,1.26,1.2659,1.2673,1.2727,1.2732,1.2713,1.2715,1.2737,1.2734,1.2808,1.2818,1.2772,1.2773,1.2773,0,1.2186,1.2219,1.2269,1.2294,1.2318,1.2358,1.2386,1.2413,1.2441,1.249,1.2515,1.2562,1.26,1.2673,1.2706,1.275,1.2756,1.2778,1.2763,1.2754,1.2754,1.2751,1.2754,1.2781,1.2781,1.2781,1.2782,0,1.2236,1.2248,1.2287,1.2331,1.2363,1.2399,1.2435,1.2455,1.2488,1.2519,1.2565,1.2595,1.2654,1.2699,1.2747,1.2773,1.2782,1.2786,1.2794,1.2787,1.2773,1.2779,1.2718,1.2784,1.2784,1.2784,1.2784,1.2784,1.2268,1.2296,1.2336,1.2378,1.2408,1.2441,1.2471,1.2499,1.2537,1.2587,1.26,1.2648,1.2688,1.2753,1.2779,1.2817,1.2814,1.2826,1.2829,1.2831,1.283,1.2768,1.2826,1.2826,1.2826,1.2826,1.2826,0,1.2317,1.2343,1.2382,1.2431,1.2464,1.2469,1.2509,1.2537,1.2578,1.2614,1.2651,1.2704,1.2748,1.2784,1.2829,1.2853,1.2858,1.2863,1.2862,1.2867,1.2831,1.2819,1.2858,1.2858,1.2858,1.2858,1.2858,1.2858,1.2347,1.2395,1.2412,1.2475,1.2501,1.2547,1.2569,1.26,1.2628,1.2686,1.2722,1.2745,1.278,1.2828,1.2869,1.2878,1.2894,1.2898,1.2908,1.2873,1.287,1.2866,1.2855,1.2901,1.2901,1.2941,1.2941,1.2941]},{"header":{"parameterUnit":"m.s-1","parameterCategory":1,"la1":30.2991,"la2":30.254,"lo1":-89.0895,"lo2":-89.0444,"dy":0.0017,"dx":0.0017,"nx":28,"ny":28,"refTime":"2023-09-07T03:00:00:Z","depth":0,"parameterNumber":3,"parameterNumberName":"V-component_of_WINDS"},"data":[0,0,0,0,0,0,0,0,0,0,0,0,0,0,0,0,0,0,0,0,0,0,0,0,0,0,0,0,0,0,0,0,0,0,0,0,0,0,0,0,0,0,0,0,0,0,0,0,0,0,0,0,0,0,0,0,0,0,5.5546,5.5546,0,5.5534,5.5534,5.5534,5.5483,5.5481,5.548,5.5479,5.5466,5.5467,5.5468,0,0,0,0,0,0,0,0,0,0,0,0,0,5.5524,5.5525,5.5546,5.5546,5.5546,5.5534,5.5534,5.5534,5.5483,5.5481,5.548,5.5479,5.5466,5.5467,5.5468,0,0,0,0,0,0,0,0,0,0,0,0,0,5.5525,5.5525,5.5546,5.5519,5.5517,5.5534,5.5534,5.5534,5.5483,5.5481,5.548,5.5478,5.5466,5.5467,5.5468,5.5511,0,0,5.5472,5.5472,0,0,0,0,0,0,0,0,5.5525,5.5526,5.5523,5.5521,5.5518,5.5508,5.5521,5.5526,5.5484,5.5496,5.5479,5.5477,5.5482,5.5481,5.5483,5.551,5.551,5.5472,5.5472,5.5473,5.5473,0,0,0,0,0,0,0,5.5525,5.5526,5.5541,5.5523,5.552,5.5507,5.5505,5.5522,5.5499,5.5495,5.5491,5.549,5.548,5.5482,5.5482,5.5509,5.5472,5.5473,5.5473,5.5474,5.5568,5.557,0,0,0,0,0,0,5.5529,5.5527,5.5542,5.5541,5.5517,5.5509,5.5507,5.5513,5.5499,5.5495,5.5492,5.5488,5.5481,5.5481,5.5482,5.5528,5.5473,5.5474,5.5475,5.5566,5.5569,5.5571,0,0,0,0,0,0,5.5529,5.5531,5.5542,5.5533,5.5533,5.5511,5.5519,5.5514,5.5516,5.5496,5.5492,5.5498,5.548,5.548,5.5503,5.5527,5.5474,5.5475,5.5564,5.5567,5.557,5.5624,0,0,0,0,0,0,5.5528,5.5531,5.5547,5.5534,5.5534,5.5565,5.552,5.5515,5.5518,5.5513,5.5501,5.5497,5.5478,5.5502,5.5504,5.5528,5.5476,5.5562,5.5566,5.5569,5.562,5.5628,5.5635,0,0,0,0,0,5.5528,5.5564,5.5549,5.5551,5.5554,5.5566,5.5566,5.5543,5.552,5.5536,5.5523,5.5498,5.5525,5.5505,5.5507,5.5531,5.556,5.5565,5.5569,5.5616,5.5626,5.5635,0,0,0,0,0,0,5.5581,5.5561,5.5544,5.5577,5.5574,5.5558,5.5577,5.5555,5.5558,5.5553,5.5525,5.5523,5.555,5.5543,5.5521,5.5571,5.5538,5.5543,5.5574,5.5583,5.5591,5.5591,5.5477,0,0,0,0,0,5.5597,5.5609,5.5591,5.5621,5.562,5.5599,5.5604,5.5586,5.5581,5.558,5.5569,5.5565,5.5572,5.5578,5.5584,5.5619,5.5615,5.5637,5.5645,5.5651,5.5655,5.5671,5.568,5.5584,5.5584,5.5584,0,0,5.5629,5.562,5.5629,5.5632,5.5627,5.5639,5.5598,5.5613,5.5621,5.5582,5.5602,5.5595,5.5588,5.5617,5.563,5.5613,5.5681,5.5656,5.5662,5.5662,5.5676,5.5685,5.5693,5.5587,5.5586,5.5586,0,0,5.5693,5.5688,5.5712,5.5708,5.5701,5.5687,5.5692,5.5679,5.5672,5.5693,5.5663,5.5672,5.5686,5.5682,5.5682,5.5744,5.572,5.5747,5.5787,5.5803,5.581,5.5817,5.5837,5.5844,5.5752,5.5752,5.5752,0,5.5734,5.5751,5.5727,5.5743,5.5744,5.5709,5.5732,5.5729,5.5725,5.5726,5.5708,5.5723,5.5717,5.5743,5.5758,5.5761,5.5765,5.5747,5.5811,5.5818,5.5823,5.5842,5.585,5.5755,5.5754,5.5754,5.5754,0,5.58,5.5812,5.5832,5.5828,5.5832,5.5852,5.583,5.5836,5.5819,5.5806,5.5826,5.5818,5.582,5.5825,5.5809,5.5849,5.5839,5.5817,5.5783,5.5836,5.5853,5.586,5.5759,5.5758,5.5757,5.5756,0,0,5.5896,5.5878,5.5886,5.5882,5.5872,5.5881,5.5899,5.5901,5.5906,5.5905,5.5918,5.593,5.5909,5.5909,5.5892,5.5906,5.5953,5.5882,5.5881,5.5893,5.5994,5.601,5.6018,5.5938,5.5939,5.594,5.5994,0,5.5955,5.5984,5.5962,5.5995,5.6005,5.5971,5.5987,5.5982,5.597,5.5977,5.5965,5.5973,5.5945,5.5945,5.5958,5.5945,5.5972,5.5941,5.5948,5.5949,5.5948,5.6028,5.6044,5.6095,5.6001,5.6002,5.6003,0,5.6028,5.6028,5.6062,5.6048,5.6051,5.6065,5.6064,5.6072,5.6065,5.6056,5.6056,5.6034,5.6049,5.6018,5.6038,5.6017,5.6019,5.6013,5.6015,5.6013,5.5977,5.6026,5.6111,5.6118,5.6014,5.6013,5.6012,0,5.6091,5.6101,5.6121,5.612,5.6105,5.6115,5.611,5.6102,5.6104,5.6104,5.6104,5.6107,5.6107,5.6109,5.6088,5.6067,5.611,5.6077,5.6101,5.6102,5.611,5.6109,5.6195,5.6116,5.6115,5.6115,5.6115,0,5.6158,5.6179,5.6149,5.6162,5.6184,5.6159,5.6181,5.6172,5.6165,5.6174,5.6147,5.6156,5.6129,5.6136,5.612,5.6138,5.6139,5.6131,5.6126,5.6132,5.6133,5.6131,5.6126,5.6117,5.6117,5.6116,5.6116,0,5.6232,5.6213,5.6233,5.6217,5.6213,5.623,5.6216,5.6227,5.6214,5.6226,5.6227,5.6207,5.6213,5.6193,5.6196,5.6185,5.6211,5.6201,5.6213,5.6209,5.6233,5.623,5.6319,5.6328,5.6245,5.6246,5.6247,0,5.6274,5.6289,5.6275,5.6279,5.6275,5.6282,5.6284,5.626,5.6263,5.6257,5.6267,5.6271,5.6273,5.6284,5.6269,5.6271,5.626,5.6291,5.626,5.6265,5.6257,5.6256,5.6256,5.6296,5.6297,5.6298,5.6299,0,5.6351,5.6341,5.6344,5.6345,5.6348,5.6347,5.6344,5.6349,5.6324,5.6328,5.6334,5.6335,5.6338,5.6341,5.634,5.6334,5.6312,5.6309,5.6314,5.6319,5.6324,5.632,5.6228,5.6307,5.6306,5.6305,5.6305,5.6305,5.6408,5.642,5.6411,5.6415,5.6411,5.6409,5.6417,5.6405,5.6409,5.6409,5.6395,5.6404,5.6396,5.6391,5.6387,5.6393,5.6378,5.6387,5.6388,5.639,5.6393,5.6326,5.6393,5.6393,5.6393,5.6392,5.6392,0,5.6481,5.6474,5.6479,5.6475,5.6479,5.6459,5.6454,5.6458,5.6466,5.6461,5.6462,5.6468,5.6472,5.6457,5.6458,5.6465,5.6455,5.6466,5.6464,5.6463,5.6407,5.6401,5.6474,5.6474,5.6474,5.6474,5.6474,5.6474,5.6519,5.6536,5.6525,5.6539,5.6532,5.6539,5.6538,5.6536,5.6531,5.6539,5.6541,5.6532,5.6523,5.6523,5.6524,5.652,5.6521,5.6535,5.6527,5.6475,5.6467,5.6459,5.6453,5.6536,5.6536,5.6582,5.6582,5.6582]}]]